Погода в Заворонежском

Россия / Тамбовская область     52°52′46″N   40°33′03″E
темп.,
°C
ветер,
м/с
пор.,
м/с
влажн.,
%
обл.,
%
осадки,
мм/ч
давл.,
гПа
погр.,
м
11 мая, вт
вт1100:00+8ссв8179390 0.0 1019511
03:00+9ссв82092100 0.0 1019508
06:00+9св81893100 0.0 1019481
09:00+13всв71386100 0.0 1020750
12:00+11в51293100 1.0 1022771
15:00+14вюв7966100 1.4 10241519
18:00+14в586628 0.0 1024703
21:00+8юв23835 0.1 102636
12 мая, ср
ср1200:00+7вюв228715 0.0 102720
03:00+6св348889 0.0 102757
06:00+8св4986100 0.0 1026258
09:00+8ссв3696100 1.0 1024221
12:00+9ссз2495100 1.3 1022279
15:00+11ссз3287100 2.4 1021465
18:00+12юв348199 0.0 1021676
21:00+9всв469315 0.0 1021105
13 мая, чт
чт1300:00+8в389633 0.0 1021142
03:00+8в36955 0.0 1020107
06:00+10всв3594100 0.0 1019134
09:00+11в2399100 8.7 1017109
12:00+14вюв239599 2.3 1017306
15:00+19ююв2472100 2.3 1017989
18:00+18вюв46800 0.1 1016343
21:00+14юв35910 0.1 101763
14 мая, пт
пт1400:00+13юв349299 0.0 101850
03:00+13вюв3693100 0.0 101891
06:00+14в4892100 0.0 1018164
09:00+20вюв587572 0.0 1017478
12:00+23юв686215 0.0 10161166
15:00+25юв6961100 0.0 10151412
18:00+23юв51073100 0.0 1014515
21:00+18юв41289100 0.0 1014243
15 мая, сб
сб1500:00+17юв4128853 0.0 1013215
03:00+15юв338910 0.0 101338
06:00+15юв4118199 0.0 1012272
09:00+18ююв6872100 0.4 1012467
12:00+21ююв71173100 0.6 1013908
15:00+22ююв5971100 0.8 1011805
18:00+18ююв5128499 2.8 1012515
21:00+17ю41185100 3.9 1011233